Location: Nirvana
(45.0297°N, 77.2628°W)
Time: 06:31:15
(UTC-05:00)

N. Korean satellite - Visible Passes

Search period start: 23 February 2019 00:00
Search period end: 05 March 2019 00:00
Orbit: 456 x 510 km, 97.2° (Epoch: 23 February)

Date Brightness Start Highest point End Pass type
(mag) Time Alt. Az. Time Alt. Az. Time Alt. Az.
23 Feb 7.3 06:12:47 10° NNE 06:16:12 55° E 06:19:34 10° S visible
23 Feb 9.9 18:24:22 10° SW 18:27:05 20° W 18:29:46 10° NW visible
24 Feb 9.0 05:48:23 10° NE 05:51:21 26° E 05:54:18 10° SSE visible
25 Feb 10.0 05:24:36 10° ENE 05:26:25 14° E 05:28:14 10° ESE visible
26 Feb 10.5 18:45:05 10° WSW 18:46:25 12° W 18:47:44 10° WNW visible
27 Feb 7.7 06:07:15 10° NNE 06:10:35 47° E 06:13:53 10° S visible
27 Feb 9.7 18:18:36 10° SSW 18:21:28 22° W 18:24:19 10° NW visible
28 Feb 9.3 05:42:55 10° NE 05:45:43 23° E 05:48:30 10° SSE visible
01 Mar 10.2 05:19:26 10° ENE 05:20:46 12° E 05:22:05 10° ESE visible
02 Mar 10.3 18:38:58 10° WSW 18:40:45 13° W 18:42:31 10° WNW visible
03 Mar 8.1 06:01:39 10° NNE 06:04:55 39° E 06:08:11 10° S visible
04 Mar 9.6 05:37:26 10° NE 05:40:02 20° E 05:42:38 10° SE visible
